[[{"header":{"parameterUnit":"m.s-1","parameterCategory":1,"la1":30.2991,"la2":30.254,"lo1":-89.0895,"lo2":-89.0444,"dy":0.0017,"dx":0.0017,"nx":28,"ny":28,"refTime":"2024-08-30T09:00:00:Z","depth":0,"parameterNumber":2,"parameterNumberName":"U-component_of_WINDS"},"data":[0,0,0,0,0,0,0,0,0,0,0,0,0,0,0,0,0,0,0,0,0,0,0,0,0,0,0,0,0,0,0,0,0,0,0,0,0,0,0,0,0,0,0,0,0,0,0,0,0,0,0,0,0,0,0,0,0,0,-3.8714,-3.8716,0,-3.8839,-3.8841,-3.8842,-3.8816,-3.8814,-3.8811,-3.8809,-3.8937,-3.8942,-3.8947,0,0,0,0,0,0,0,0,0,0,0,0,0,-3.8452,-3.8457,-3.8714,-3.8716,-3.8717,-3.8839,-3.8841,-3.8842,-3.8816,-3.8814,-3.8811,-3.8808,-3.8935,-3.8941,-3.8948,0,0,0,0,0,0,0,0,0,0,0,0,0,-3.857,-3.8458,-3.8714,-3.8719,-3.8721,-3.8839,-3.8841,-3.8843,-3.8817,-3.8813,-3.881,-3.8807,-3.8933,-3.8941,-3.8949,-3.907,0,0,-3.8974,-3.8978,0,0,0,0,0,0,0,0,-3.8564,-3.858,-3.8717,-3.8719,-3.8721,-3.8808,-3.8795,-3.8919,-3.8818,-3.878,-3.8809,-3.8805,-3.8897,-3.8908,-3.8939,-3.9076,-3.9081,-3.8975,-3.898,-3.8984,-3.8986,0,0,0,0,0,0,0,-3.8555,-3.8574,-3.8764,-3.8719,-3.8721,-3.8715,-3.8728,-3.8818,-3.8856,-3.8783,-3.8782,-3.8797,-3.8897,-3.8931,-3.8942,-3.9083,-3.8975,-3.8982,-3.8987,-3.8991,-3.9324,-3.9327,0,0,0,0,0,0,-3.8545,-3.8568,-3.876,-3.8767,-3.8632,-3.8722,-3.8737,-3.8784,-3.8855,-3.8863,-3.88,-3.8795,-3.8918,-3.8932,-3.8946,-3.909,-3.8984,-3.8991,-3.8996,-3.932,-3.9324,-3.9329,0,0,0,0,0,0,-3.854,-3.8563,-3.8755,-3.8667,-3.8691,-3.873,-3.8784,-3.8788,-3.8822,-3.8868,-3.8874,-3.8827,-3.8916,-3.8934,-3.9039,-3.9095,-3.8995,-3.9003,-3.9315,-3.9321,-3.9327,-3.9381,0,0,0,0,0,0,-3.8532,-3.8561,-3.8607,-3.8668,-3.8696,-3.8846,-3.8787,-3.8793,-3.8836,-3.8831,-3.8895,-3.8902,-3.8915,-3.9027,-3.9047,-3.9104,-3.9009,-3.931,-3.9318,-3.9325,-3.9375,-3.9388,-3.94,0,0,0,0,0,-3.8523,-3.8618,-3.861,-3.8633,-3.8755,-3.8849,-3.8864,-3.8877,-3.8841,-3.8887,-3.8917,-3.89,-3.9086,-3.9037,-3.906,-3.9121,-3.9307,-3.9316,-3.9324,-3.9369,-3.9386,-3.94,0,0,0,0,0,0,-3.8562,-3.8626,-3.8618,-3.8735,-3.8787,-3.8844,-3.8903,-3.8894,-3.8957,-3.895,-3.8963,-3.8978,-3.9084,-3.9113,-3.9058,-3.9241,-3.9191,-3.9205,-3.9217,-3.9233,-3.9246,-3.9235,-3.9016,0,0,0,0,0,-3.8584,-3.8656,-3.8708,-3.8806,-3.8833,-3.8864,-3.8905,-3.8911,-3.8964,-3.8986,-3.9023,-3.9076,-3.9146,-3.9192,-3.9259,-3.938,-3.9392,-3.9433,-3.9445,-3.9455,-3.9466,-3.9531,-3.9549,-3.9357,-3.9357,-3.9357,0,0,-3.8631,-3.8675,-3.8719,-3.8815,-3.8856,-3.8929,-3.8882,-3.8962,-3.9016,-3.8998,-3.9098,-3.9128,-3.9188,-3.93,-3.9352,-3.9328,-3.9523,-3.9466,-3.9474,-3.948,-3.9542,-3.956,-3.9576,-3.9363,-3.9362,-3.9361,0,0,-3.8753,-3.8794,-3.8879,-3.8921,-3.8983,-3.9004,-3.9024,-3.9084,-3.9102,-3.9204,-3.9191,-3.9256,-3.9377,-3.9419,-3.9457,-3.9595,-3.9582,-3.9617,-3.9682,-3.9745,-3.976,-3.9774,-3.9821,-3.9838,-3.9628,-3.9629,-3.9629,0,-3.8802,-3.8912,-3.8925,-3.9005,-3.9047,-3.9035,-3.9122,-3.9162,-3.9243,-3.9272,-3.9245,-3.9395,-3.9435,-3.9557,-3.959,-3.9622,-3.9645,-3.9609,-3.9757,-3.9771,-3.9783,-3.9829,-3.9847,-3.9632,-3.9632,-3.9631,-3.9631,0,-3.8969,-3.9046,-3.9108,-3.9186,-3.9235,-3.9319,-3.9343,-3.9392,-3.9393,-3.9416,-3.9519,-3.9566,-3.9642,-3.9672,-3.9674,-3.9794,-3.9777,-3.9754,-3.9703,-3.9805,-3.9848,-3.9866,-3.9638,-3.9636,-3.9635,-3.9634,0,0,-3.9117,-3.9202,-3.9224,-3.9259,-3.9327,-3.9386,-3.9469,-3.9543,-3.9584,-3.9641,-3.9709,-3.9812,-3.979,-3.9833,-3.984,-3.9896,-4.0,-3.9865,-3.9866,-3.9886,-4.0133,-4.0149,-4.0169,-3.9992,-3.9996,-3.9999,-4.0128,0,-3.9243,-3.9389,-3.9403,-3.9533,-3.9603,-3.9593,-3.9665,-3.9714,-3.9738,-3.9801,-3.9827,-3.9899,-3.9866,-3.9891,-3.9946,-3.9976,-4.0049,-3.9967,-4.0055,-4.0058,-4.0038,-4.0192,-4.0209,-4.0328,-4.0145,-4.0148,-4.015,0,-3.941,-3.9471,-3.9608,-3.9665,-3.9695,-3.9759,-3.9828,-3.9889,-3.9944,-3.9958,-4.0006,-4.0006,-4.009,-4.0039,-4.0155,-4.0098,-4.0135,-4.0156,-4.0161,-4.0167,-4.0108,-4.0201,-4.0367,-4.0384,-4.0177,-4.0174,-4.0172,0,-3.9501,-3.9618,-3.9715,-3.9745,-3.9816,-3.9861,-3.9892,-3.9944,-3.9988,-4.0048,-4.0076,-4.0146,-4.0184,-4.0238,-4.0256,-4.0217,-4.0371,-4.0321,-4.0384,-4.0383,-4.0415,-4.0412,-4.0587,-4.0443,-4.0442,-4.0442,-4.0441,0,-3.964,-3.9723,-3.9757,-3.9816,-3.9909,-3.9925,-4.0017,-4.0046,-4.0093,-4.0157,-4.0153,-4.0214,-4.0235,-4.03,-4.0315,-4.0408,-4.0425,-4.0438,-4.044,-4.0437,-4.0435,-4.046,-4.0451,-4.0447,-4.0446,-4.0445,-4.0444,0,-3.9757,-3.9783,-3.9887,-3.9945,-3.9962,-4.0028,-4.0077,-4.0134,-4.0157,-4.0239,-4.0259,-4.0296,-4.0371,-4.0395,-4.0486,-4.0496,-4.0604,-4.0601,-4.0585,-4.0585,-4.0645,-4.0638,-4.084,-4.0867,-4.0707,-4.0708,-4.071,0,-3.9842,-3.9906,-3.9971,-4.0014,-4.0047,-4.0116,-4.016,-4.0179,-4.0225,-4.0293,-4.0342,-4.0416,-4.0476,-4.0597,-4.0631,-4.0701,-4.0698,-4.0764,-4.0708,-4.0702,-4.0696,-4.0691,-4.0697,-4.0773,-4.0775,-4.0776,-4.0778,0,-3.999,-4.0,-4.0064,-4.0133,-4.0186,-4.0241,-4.0294,-4.033,-4.0355,-4.0408,-4.0484,-4.0531,-4.0624,-4.0697,-4.0768,-4.08,-4.0793,-4.0795,-4.0813,-4.0809,-4.0796,-4.0802,-4.0611,-4.079,-4.0789,-4.0788,-4.0787,-4.0787,-4.0093,-4.0149,-4.0203,-4.0274,-4.0316,-4.0366,-4.0422,-4.0452,-4.0517,-4.0593,-4.06,-4.0683,-4.0737,-4.0831,-4.0867,-4.0931,-4.0912,-4.0938,-4.0945,-4.095,-4.0954,-4.0788,-4.0944,-4.0944,-4.0944,-4.0944,-4.0943,0,-4.0239,-4.0274,-4.0339,-4.0413,-4.047,-4.0459,-4.0517,-4.0564,-4.0637,-4.0688,-4.0747,-4.0835,-4.0906,-4.0947,-4.1018,-4.1062,-4.1061,-4.108,-4.1076,-4.1083,-4.0968,-4.0944,-4.108,-4.108,-4.108,-4.108,-4.108,-4.108,-4.0322,-4.0416,-4.0432,-4.0546,-4.058,-4.066,-4.0694,-4.074,-4.078,-4.0878,-4.0938,-4.0964,-4.101,-4.1085,-4.115,-4.116,-4.1185,-4.1207,-4.1214,-4.1105,-4.1091,-4.1078,-4.1056,-4.1213,-4.1213,-4.1324,-4.1325,-4.1326]},{"header":{"parameterUnit":"m.s-1","parameterCategory":1,"la1":30.2991,"la2":30.254,"lo1":-89.0895,"lo2":-89.0444,"dy":0.0017,"dx":0.0017,"nx":28,"ny":28,"refTime":"2024-08-30T09:00:00:Z","depth":0,"parameterNumber":3,"parameterNumberName":"V-component_of_WINDS"},"data":[0,0,0,0,0,0,0,0,0,0,0,0,0,0,0,0,0,0,0,0,0,0,0,0,0,0,0,0,0,0,0,0,0,0,0,0,0,0,0,0,0,0,0,0,0,0,0,0,0,0,0,0,0,0,0,0,0,0,1.9124,1.9125,0,1.9177,1.9178,1.9178,1.9156,1.9155,1.9153,1.9152,1.9206,1.9208,1.9211,0,0,0,0,0,0,0,0,0,0,0,0,0,1.9004,1.9007,1.9124,1.9125,1.9126,1.9177,1.9178,1.9178,1.9156,1.9155,1.9153,1.9152,1.9205,1.9208,1.9211,0,0,0,0,0,0,0,0,0,0,0,0,0,1.9057,1.9008,1.9124,1.9121,1.9121,1.9177,1.9178,1.9179,1.9156,1.9154,1.9153,1.9151,1.9204,1.9207,1.9211,1.9273,0,0,1.9223,1.9225,0,0,0,0,0,0,0,0,1.9054,1.9061,1.9121,1.9121,1.9121,1.9158,1.9155,1.921,1.9157,1.9143,1.9152,1.915,1.9191,1.9196,1.921,1.9276,1.9278,1.9224,1.9226,1.9228,1.9229,0,0,0,0,0,0,0,1.905,1.9059,1.9145,1.9122,1.9122,1.9117,1.9122,1.9165,1.9177,1.9144,1.9143,1.9149,1.9191,1.9206,1.9211,1.9279,1.9223,1.9227,1.9229,1.9231,1.9399,1.9401,0,0,0,0,0,0,1.9047,1.9056,1.9143,1.9147,1.9082,1.912,1.9126,1.9148,1.9177,1.9179,1.9151,1.9148,1.9201,1.9207,1.9213,1.9288,1.9228,1.9231,1.9233,1.9397,1.94,1.9402,0,0,0,0,0,0,1.9044,1.9055,1.9141,1.9101,1.9112,1.9124,1.9149,1.915,1.9165,1.9182,1.9184,1.9164,1.9199,1.9207,1.9259,1.9289,1.9233,1.9237,1.9395,1.9398,1.9401,1.9437,0,0,0,0,0,0,1.9041,1.9054,1.9078,1.9102,1.9114,1.9186,1.9151,1.9153,1.9172,1.9169,1.9195,1.9197,1.9198,1.9253,1.9263,1.9293,1.924,1.9392,1.9396,1.94,1.9434,1.9442,1.9448,0,0,0,0,0,1.9037,1.9085,1.9079,1.909,1.9144,1.9188,1.9195,1.9196,1.9175,1.9199,1.9209,1.9196,1.9285,1.9258,1.9269,1.9302,1.939,1.9395,1.94,1.943,1.944,1.9448,0,0,0,0,0,0,1.9064,1.9089,1.9081,1.914,1.9162,1.9184,1.9214,1.9206,1.9234,1.923,1.923,1.9236,1.9289,1.93,1.9271,1.9364,1.9334,1.9341,1.9354,1.9363,1.937,1.9366,1.9243,0,0,0,0,0,1.9077,1.9111,1.9131,1.918,1.9192,1.9201,1.9221,1.9219,1.9242,1.9252,1.9266,1.9289,1.9322,1.9343,1.9374,1.9436,1.9441,1.9463,1.9471,1.9477,1.9483,1.9516,1.9526,1.9418,1.9418,1.9418,0,0,1.9104,1.9121,1.9143,1.9186,1.9203,1.9239,1.9209,1.9248,1.9274,1.9257,1.9307,1.9318,1.9344,1.94,1.9426,1.9412,1.9514,1.9483,1.9487,1.949,1.9522,1.9532,1.9542,1.9421,1.942,1.942,0,0,1.917,1.9187,1.923,1.9249,1.9275,1.9281,1.9292,1.9316,1.9323,1.9373,1.9361,1.9392,1.9449,1.9468,1.9485,1.956,1.9549,1.957,1.9608,1.9641,1.965,1.9657,1.9684,1.9694,1.9576,1.9577,1.9577,0,1.92,1.9253,1.9254,1.9293,1.9313,1.93,1.9344,1.9362,1.9397,1.9411,1.9394,1.9466,1.9482,1.9543,1.9561,1.9576,1.9588,1.9567,1.9649,1.9656,1.9663,1.9689,1.9699,1.9579,1.9579,1.9578,1.9578,0,1.9288,1.9325,1.9357,1.9392,1.9415,1.9456,1.9463,1.9487,1.9484,1.9492,1.9543,1.9563,1.9598,1.9612,1.961,1.9673,1.9664,1.9648,1.9618,1.9676,1.97,1.971,1.9582,1.9581,1.9581,1.958,0,0,1.9372,1.9408,1.9419,1.9435,1.9464,1.9493,1.9534,1.9569,1.9589,1.9614,1.9649,1.9698,1.9684,1.9703,1.9703,1.9732,1.9791,1.9713,1.9713,1.9726,1.9862,1.9873,1.9884,1.9784,1.9786,1.9787,1.986,0,1.944,1.9513,1.9515,1.9581,1.9616,1.9605,1.9641,1.9663,1.9672,1.9702,1.9712,1.9747,1.9726,1.9738,1.9766,1.9777,1.9818,1.9772,1.9816,1.9818,1.9809,1.9897,1.9909,1.9976,1.9869,1.9871,1.9872,0,1.9529,1.9558,1.9628,1.9653,1.9667,1.9699,1.9732,1.9761,1.9786,1.9791,1.9813,1.9809,1.9851,1.9821,1.988,1.9849,1.9867,1.9876,1.9879,1.9882,1.9848,1.9902,1.9997,2.0007,1.9887,1.9886,1.9884,0,1.9583,1.9639,1.9688,1.9702,1.9733,1.9756,1.977,1.9793,1.9814,1.9842,1.9856,1.9889,1.9907,1.9933,1.9938,1.9915,1.9997,1.9967,2.0002,2.0002,2.0019,2.0017,2.0117,2.0032,2.0032,2.0031,2.0031,0,1.9659,1.9702,1.9713,1.9743,1.9791,1.9794,1.9841,1.9853,1.9874,1.9907,1.99,1.993,1.9936,1.9968,1.9972,2.002,2.0028,2.0033,2.0034,2.0034,2.0033,2.0045,2.004,2.0034,2.0033,2.0033,2.0032,0,1.9726,1.9736,1.9788,1.9813,1.9821,1.9855,1.9876,1.9905,1.9914,1.9955,1.9965,1.9979,2.0016,2.0024,2.0068,2.0071,2.0129,2.0125,2.012,2.012,2.0154,2.0151,2.0265,2.028,2.0185,2.0186,2.0186,0,1.9774,1.9806,1.9835,1.9857,1.9872,1.9906,1.9928,1.9932,1.9955,1.9987,2.0012,2.0049,2.0078,2.0139,2.0153,2.0187,2.0183,2.0221,2.0188,2.0187,2.0184,2.0181,2.0185,2.0227,2.0228,2.0229,2.023,0,1.9856,1.986,1.9891,1.9925,1.9951,1.9977,2.0003,2.0021,2.0029,2.0055,2.0093,2.0116,2.0162,2.0198,2.0233,2.0247,2.024,2.024,2.025,2.0249,2.0245,2.0248,2.0137,2.0237,2.0236,2.0236,2.0235,2.0235,1.9915,1.9944,1.9969,2.0005,2.0024,2.0048,2.0077,2.009,2.0122,2.0159,2.016,2.0202,2.0227,2.0273,2.029,2.0323,2.0311,2.0325,2.0329,2.0332,2.0335,2.0241,2.0329,2.0329,2.0329,2.0328,2.0328,0,1.9997,2.0013,2.0046,2.0082,2.011,2.0102,2.0129,2.0153,2.019,2.0215,2.0244,2.0289,2.0324,2.0342,2.0378,2.0401,2.0398,2.041,2.0408,2.0411,2.0343,2.0331,2.0411,2.0411,2.0411,2.0411,2.0411,2.0411,2.0043,2.0092,2.0098,2.0157,2.0172,2.0214,2.023,2.0253,2.0272,2.0322,2.0352,2.0363,2.0385,2.0422,2.0455,2.0459,2.0473,2.0486,2.0488,2.0425,2.0416,2.0408,2.0396,2.0489,2.0489,2.0554,2.0554,2.0555]}]]